Preview of NWS' New Version of Forecast
This preview is not operational and should not be used for support decisions.
Latest weather observations around

Manchester Airport (KMHT)

Using English Units (Switch to International System of Units)
Date/ Time (EDT) Wind (mph) Vis. (mi) Weather Sky Cond. Temp (°F) Rel. Humidity Wind Chill (°F) Heat Index (°F) Pressure Precip. (in)
Air Dwpt 6 hour Altimeter (inHg) Sea level (inHg) 1 hr 3 hr 6 hr
Max Min
Aug 20 11:53 Calm 10 Mostly Clear FEW060 FEW250 83 55     38%   82 30.06 30.08      
Aug 20 10:53 NW 5 10 Mostly Clear FEW250 81 58     45%   81 30.07 30.09      
Aug 20 09:53 5 10 Mostly Clear FEW250 78 60     54%   78 30.07 30.1      
Aug 20 08:53 NW 7 10 Mostly Clear FEW250 76 58     54%   76 30.07 30.1      
Aug 20 07:53 NNW 5 10 Mostly Clear FEW250 72 60     66%   72 30.07 30.09      
Aug 20 06:53 Calm 10 Mostly Clear FEW250 67 60     79%     30.06 30.09      
Aug 20 05:53 Calm 10 Mostly Clear FEW250 68 60     76%     30.03 30.05      
Aug 20 04:53 Calm 10 Clear CLR 70 60     71%     30.01 30.03      
Aug 20 03:53 NW 5 10 Clear CLR 74 59     60%   74 29.99 30.01      
Aug 20 02:53 NW 6 10 Mostly Clear FEW250 74 61     64%   74 29.97 29.99      
Aug 20 01:53 5 10 Clear   76 63     64%   76 29.96 29.98      
Aug 20 00:53 3 10 Clear CLR 73 65     76%   74 29.97 29.99      
Aug 19 23:53 Calm 10 Mostly Clear FEW250 75 66     74%   76 29.96 29.98      
Aug 19 22:53 Calm 10 Clear CLR 76 67     74%   77 29.95 29.97      
Aug 19 21:53 SSW 5 10 Clear CLR 78 68     71%   79 29.95 29.97      
Aug 19 20:53 SSW 6 10 Mostly Clear FEW250 78 70     76%   79 29.94 29.96      
Aug 19 19:53 S 6 10 Mostly Clear FEW150 FEW250 79 70     74%   82 29.91 29.94     0
Aug 19 18:53 SW 7 10 Mostly Cloudy FEW050 SCT200 BKN250 80 69     69%   83 29.89 29.92      
Aug 19 17:53 SW 8 10 Mostly Cloudy FEW035 FEW070 SCT150 BKN250 81 67     62%   83 29.88 29.91 0    
Aug 19 16:53 SW 8 10 Mostly Cloudy FEW030 SCT065 BKN150 BKN250 81 68     65%   84 29.88 29.91 0 0  
Aug 19 16:17 W 11 10 Mostly Cloudy FEW050 SCT100 BKN150 BKN250 89 69     52%   94 29.88        
Aug 19 15:53   10 Thunderstorms FEW050 SCT075 BKN150 BKN250 91 68     47%   95 29.88 29.9      
Aug 19 15:40 W 9 10 Thunderstorms FEW050 SCT075 BKN250 92 69     47%   97 29.86        
Aug 19 14:53   10 Partly Cloudy SCT050 SCT100 SCT250 91 68     47%   95 29.86 29.89      
Aug 19 13:53 S 13 10 Mostly Clear FEW050 FEW180 FEW250 91 66     44%   94 29.88 29.91      
Aug 19 12:53 SSW 9 10 Mostly Cloudy FEW200 BKN250 89 65     45%   91 29.91 29.93      
Aug 19 11:53 SW 9 10 Mostly Cloudy FEW150 FEW200 BKN250 87 64     46%   88 29.93 29.95      
Aug 19 10:53 WSW 6 10 Mostly Cloudy FEW036 FEW150 BKN250 83 66     57%   85 29.94 29.96      
Aug 19 09:53 SW 9 10 Partly Cloudy FEW200 SCT250 80 66     62%   82 29.94 29.96      
Aug 19 08:53 WSW 5 10 Partly Cloudy FEW150 SCT250 78 67     69%   79 29.94 29.97      
Aug 19 07:53 SW 6 10 Partly Cloudy FEW003 FEW100 SCT250 74 69     85%   75 29.96 29.98      
Aug 19 07:08 S 6 7 Mostly Cloudy SCT003 SCT100 BKN250 71 70     96%   72 29.95        
Aug 19 06:56 Calm 0.5 Fog SCT003 SCT250 71 70     96%   72 29.95        
Aug 19 06:53 SW 3 0.25 Fog SCT003 SCT250 71 70     96%   72 29.96 29.98      
Aug 19 06:50 Calm 0.25 Fog SCT003 SCT250 72 70     94%   73 29.96        
Aug 19 06:16 S 6 0.5 Fog OVC002 71 70     96%   72 29.95        
Aug 19 05:53 Calm 0.25 Fog OVC002 71 70     96%   72 29.95 29.97      
Aug 19 05:37 SSE 3 0.25 Fog VV002 71 71     100%   73 29.95        
Aug 19 05:20 SSW 5 0.25 Fog VV002 71 71     100%   73 29.95        
Aug 19 05:13 S 3 0.5 Fog OVC002 71 71     100%   73 29.95        
Aug 19 04:53 Calm 1.5 Fog/Mist OVC004 72 70     93%   73 29.95 29.97      
Aug 19 04:48 SSW 3 1.5 Fog/Mist OVC004 72 70     94%   73 29.95        
Aug 19 03:53 Calm 2 Fog/Mist OVC005 72 70     93%   73 29.94 29.96      
Aug 19 03:50 Calm 2 Fog/Mist OVC005 72 70     94%   73 29.94        
Aug 19 02:53 Calm 10 Cloudy BKN003 OVC250 71 70     96%   72 29.93 29.95      
Aug 19 02:44 Calm 10 Mostly Cloudy SCT004 BKN250 71 70     96%   72 29.93        
Aug 19 01:53 3 10 Mostly Cloudy SCT120 BKN250 73 70     90%   74 29.92 29.95      
Aug 19 00:53 Calm 10 Mostly Cloudy FEW050 BKN220 74 70     87%   75 29.92 29.94      
Aug 18 23:53 S 6 10 Mostly Cloudy FEW010 SCT023 BKN110 75 70     84%   76 29.93 29.96      
Aug 18 22:53 ESE 7 10 Cloudy BKN031 OVC250 75 70     84%   76 29.95 29.98      
Aug 18 21:53 SE 6 10 Mostly Cloudy BKN050 BKN250 75 70     84%   76 29.96 29.98      
Aug 18 20:53 ESE 3 10 Mostly Cloudy BKN048 BKN250 76 70     82%   77 29.95 29.98      
Aug 18 19:53 SE 7 10 Mostly Cloudy BKN050 BKN250 78 70     76%   79 29.95 29.97      
Aug 18 18:53   10 Mostly Cloudy SCT060 BKN250 82 72     72%   87 29.94 29.96      
Aug 18 17:53 SSW 6 10 Mostly Cloudy BKN060 87 64     46%   88 29.95 29.97      
Aug 18 16:53 SSW 8 10 Mostly Clear FEW040 FEW250 88 64     45%   89 29.95 29.97      
Aug 18 15:53 WSW 6 10 Mostly Clear FEW040 FEW250 88 67     50%   91 29.96 29.98      
Aug 18 14:53 SW 3 10 Partly Cloudy FEW040 SCT250 85 68     57%   88 29.97 30      
Aug 18 13:53 3 10 Partly Cloudy FEW040 SCT250 84 68     59%   87 29.98 30.01      
Aug 18 12:53 NNE 5 10 Partly Cloudy FEW030 SCT250 83 65     55%   85 29.98 30.01      
Aug 18 11:53 WNW 3 10 Mostly Cloudy FEW020 BKN250 80 65     60%   82 30 30.03      
Aug 18 10:53 WNW 5 10 Mostly Cloudy FEW012 BKN250 76 66     71%   77 30.01 30.04      
Aug 18 10:36 N 5 10 Mostly Cloudy SCT012 BKN250 77 67     71%   78 30.02        
Aug 18 09:53 Calm 10 Mostly Cloudy BKN007 BKN250 73 66     79%   74 30.03 30.06      
Aug 18 09:15 WNW 5 7 Cloudy OVC005 70 66     87%     30.02        
Aug 18 08:53 NW 5 2 Fog/Mist OVC005 69 66     90%     30.03 30.06      
Aug 18 07:53 NNW 5 2 Fog/Mist OVC005 68 66     93%     30.01 30.04      
Aug 18 07:11 NNE 5 1 Fog/Mist OVC003 67 67     100%     29.99        
Aug 18 06:53 NNE 5 0.5 Fog/Mist OVC003 67 67     100%     29.99 30.02      
Aug 18 06:33 NNE 3 0.5 Fog/Mist OVC003 67 67     100%     30        
Aug 18 05:53 Calm 0.25 Fog VV002 67 67     100%     29.99 30.01      
Aug 18 05:43 NE 5 0.25 Fog VV002 67 66     97%     29.98        
Aug 18 05:36 Calm 0.25 Fog VV002 67 67     100%     29.98        
Aug 18 04:53 Calm 0.25 Fog VV002 67 67     100%     29.98 30      
Aug 18 04:50 Calm 0.25 Fog VV002 66 66     100%     29.98        
Aug 18 03:53 Calm 0.25 Fog VV002 67 67     100%     29.97 30      
Aug 18 03:31 Calm 0.25 Fog/Mist VV002 68 67     96%     29.98        
Aug 18 03:24 Calm 0.5 Fog VV002 68 67     96%     29.97        
Aug 18 03:16 Calm 1 Fog/Mist BKN002 68 67     96%     29.98        
Aug 18 03:04 Calm 1.5 Fog/Mist BKN003 68 68     100%     29.98        
Aug 18 02:53 Calm 9 Mostly Cloudy BKN003 68 67     96%     29.98 30.01      
Aug 18 01:53 Calm 10 Mostly Cloudy BKN007 69 67     93%     29.99 30.02     0
Aug 18 01:20 Calm 10 Partly Cloudy FEW008 SCT060 SCT070 69 67     93%     29.99        
Aug 18 00:53 Calm 10 Mostly Cloudy BKN150 69 67     93%     29.99 30.01      
Aug 18 00:31 Calm 10 Mostly Cloudy BKN150 69 67     93%     29.99        
Aug 17 23:53 SSE 5 10 Mostly Cloudy BKN012 BKN020 69 68     96%     29.99 30.02 0    
Aug 17 22:53 ESE 5 10 Light Rain BKN018 BKN110 70 68     93%     29.99 30.02 0 0  
Aug 17 22:41 3 6 Light Rain and Fog/Mist SCT012 SCT028 BKN085 70 68     93%     29.99   0    
Aug 17 22:32 3   Light Rain and Fog/Mist SCT012 SCT028 OVC110 70 68     93%     30   0    
Aug 17 22:20 ENE 6 2.5 Thunderstorms and Heavy Rain and Fog/Mist BKN009 OVC016 70 68     93%     30   0    
Aug 17 22:14 E 7 2.5 Heavy Rain and Fog/Mist BKN009 OVC016 70 68     93%     30.01   0    
Aug 17 21:53 E 3 10 Thunderstorms SCT009 BKN020 OVC090 71 67     87%   72 30 30.03      
Aug 17 21:38 Calm 10 Thunderstorms FEW008 BKN025 OVC090 71 67     87%   72 30        
Aug 17 20:53 ESE 6 10 Cloudy FEW008 OVC025 72 67     84%   73 29.99 30.02      
Aug 17 19:53 E 8 10 Mostly Cloudy BKN020 BKN150 74 69     85%   75 29.97 30      
Aug 17 18:53 E 7 10 Cloudy BKN022 OVC038 76 70     82%   77 29.98 30.01      
Aug 17 17:53 ESE 8 10 Mostly Cloudy BKN020 BKN030 BKN200 79 70     74%   82 29.96 29.99      
Aug 17 16:53   10 Mostly Cloudy SCT022 BKN030 BKN200 80 69     69%   83 29.97 30      
Aug 17 16:28 ESE 10 10 Mostly Cloudy SCT022 BKN031 BKN200 81 69     67%   84 29.98        
Aug 17 15:53   10 Mostly Cloudy BKN020 BKN200 81 69     67%   84 30 30.03      
Aug 17 14:53 SE 9 10 Mostly Cloudy BKN020 BKN200 79 68     69%   80 30.02 30.05      
Aug 17 13:53 SSE 9 10 Cloudy BKN020 OVC200 78 68     71%   79 30.03 30.06      
Aug 17 12:53 S 8 10 Cloudy OVC016 76 67     74%   77 30.05 30.08      
Aug 17 11:53 S 7 10 Cloudy OVC017 74 67     79%   75 30.04 30.07      
Aug 17 10:53 SSW 7 10 Cloudy BKN012 OVC021 74 67     79%   75 30.04 30.07      
May 15 10:53 SSW 11 10 Mostly Cloudy FEW080 BKN300 81 61     51%   82 29.75 29.78      
May 15 00:53 SSW 3 10 Partly Cloudy SCT250 65 54     68%     29.87 29.9      
Notice The following observation data may not be complete
May 14 21:53 S 3 10 Mostly Cloudy BKN250   52      %     29.86 29.89      
May 14 11:53 SSW 7 10 Mostly Cloudy BKN025 65 50     58%     29.94 29.98      
Notice The following observation data may not be complete
May 12 02:53 N 3 10 Clear CLR   27      %     30.18 30.22      
May 11 19:53 NNE 9 10 Mostly Cloudy BKN250 63        %     30.05 30.09      
May 11 16:53 NNW 13 10 Mostly Cloudy BKN250 69 18     14%     29.98 30.02      
May 11 15:53 NNW 16 10 Mostly Cloudy BKN250 69        %     29.97 30      
May 11 14:53 N 18 10 Mostly Clear FEW250 69        %     29.97 30      
May 11 12:53 NNW 14 10 Mostly Clear FEW060 68        %     29.95 29.98      
May 11 11:53 W 8 10 Partly Cloudy FEW065 SCT250 63 27     25%     29.95 29.99      
Jun 11 14:53 SSW 14 10 Partly Cloudy SCT250 90 56     32%   88 29.86 29.88      
Jun 11 00:53 S 5 10 Partly Cloudy SCT200 72 56     57%   72 29.95 29.97      
Jun 10 22:53 S 7 10 Clear   74 57     56%   74 29.95 29.98      
Jun 10 20:53 S 5 10 Mostly Cloudy FEW075 BKN200 BKN250 78 55     45%   78 29.92 29.94      
Jun 10 10:53 SSW 6 10 Partly Cloudy SCT100 SCT200 77 52     42%   76 29.94 29.97      
Jun 09 16:53   10 Mostly Cloudy FEW050 SCT150 BKN250 76        %     29.63 29.66      
Jun 08 23:53 NNE 5 10 Clear   60 44     55%     29.83 29.86      
Jun 08 08:53 Calm 10 Mostly Clear FEW250 65 49     56%     30.02 30.06      
Jun 07 12:53 ENE 9 10 Mostly Clear FEW060 FEW200 70 42     36%     29.94 29.98      
Jun 06 12:45 NNE 8 4 Light Rain and Fog/Mist BKN011 BKN022 OVC029 49 45     86% 45   29.87   0    
Jun 06 11:24 NE 10 5 Light Rain and Fog/Mist SCT010 OVC015 49 45     86% 45   29.86   0    
Jun 06 09:53 NE 10 7 Light Rain BKN010 OVC016 49 45     86% 45   29.83 29.87 0    
Notice The following observation data may not be complete
Jun 06 06:01   4 Light Rain and Fog/Mist OVC009          %         0